User: anonymous   Login
Location: *
(37.9500°N, 27.3666°E)
Time: 12:19:34
(UTC+00:00)
Language:

Cosmos 614 Rocket - Orbit

View from above orbital plane
View from above orbital plane
View from above satellite
View from above satellite

Ground track
Ground track

The orbit data is extracted from the following two-line orbital elements,

1  6966U 73098B   22272.01099056  .00000221  00000-0  73424-4 0  9998
2  6966  74.0544 242.5218 0019946  91.7034 268.6408 14.43233189563905
Epoch (UTC): 29 September 2022 00:15:49
Eccentricity: 0.0019946
inclination: 74.0544°
perigee height: 733 km
apogee height: 762 km
right ascension of ascending node: 242.5218°
argument of perigee: 91.7034°
revolutions per day: 14.43233189
mean anomaly at epoch: 268.6408°
orbit number at epoch: 56390

The dashed part of the orbit path shows where the satellite is in the earth's shadow,  

DLR